period_start,C,m1,H,J0,J1,J2,J3,J4,J5,JA,JB,JC,JD,JJ,JK,JN,#
2014-04-13 00:00:59,0.17,0.56,0.00,17.56,24.85,26.58,6.19,32.58,997.56,2047.01,3276.28,3179.08,3432.16,350.70,324.49,5.22,0000 0000 0000 0000 000000
2014-04-13 00:01:59,0.10,0.56,0.00,17.56,24.85,26.57,6.18,32.13,997.57,2047.01,3276.09,3179.03,3432.05,350.25,324.08,5.23,0000 0000 0000 0000 000000
2014-04-13 00:02:59,0.05,0.56,0.00,17.55,24.84,26.59,6.00,32.63,997.57,2047.00,3275.78,3178.84,3431.99,349.93,324.02,5.23,0000 0000 0000 0000 000000
2014-04-13 00:03:59,0.12,0.56,0.00,17.55,24.83,26.61,6.08,32.46,997.57,2047.03,3275.32,3178.37,3431.53,350.65,324.46,5.24,0000 0000 0000 0000 000000
2014-04-13 00:05:00,0.22,0.57,0.00,17.52,24.82,26.57,6.13,32.42,997.57,2047.04,3275.13,3178.15,3431.20,350.08,323.96,5.25,0000 0000 0000 0000 000000
2014-04-13 00:06:00,0.11,0.57,0.00,17.51,24.82,26.59,6.24,32.63,997.56,2047.10,3275.04,3178.05,3431.07,351.11,324.93,5.25,0000 0000 0000 0000 000000
2014-04-13 00:07:00,0.13,0.57,0.00,17.49,24.82,26.54,6.02,32.42,997.57,2047.12,3274.89,3177.99,3430.99,349.86,323.79,5.26,0000 0000 0000 0000 000000
2014-04-13 00:08:00,0.02,0.57,0.00,17.49,24.82,26.53,6.08,32.25,997.57,2047.10,3274.43,3177.66,3430.68,350.38,324.27,5.26,0000 0000 0000 0000 000000
2014-04-13 00:09:00,0.19,0.57,0.00,17.49,24.82,26.60,6.30,32.17,997.59,2047.09,3274.14,3177.26,3430.25,351.30,325.13,5.27,0000 0000 0000 0000 000000
2014-04-13 00:10:01,0.16,0.57,0.00,17.50,24.80,26.61,6.06,32.33,997.68,2047.06,3273.83,3177.09,3430.07,349.60,323.57,5.28,0000 0000 0000 0000 000000
2014-04-13 00:11:01,0.09,0.57,0.00,17.52,24.80,26.63,6.15,32.21,997.86,2047.06,3273.36,3177.01,3429.88,349.84,323.73,5.28,0000 0000 0000 0000 000000
2014-04-13 00:12:01,0.10,0.57,0.00,17.50,24.80,26.65,6.19,31.88,998.00,2047.05,3273.12,3176.63,3429.48,349.98,324.01,5.29,0000 0000 0000 0000 000000
2014-04-13 00:13:02,0.17,0.57,0.00,17.51,24.80,26.65,6.17,32.04,998.06,2047.11,3272.92,3176.29,3429.18,350.42,324.74,5.29,0000 0000 0000 0000 000000
2014-04-13 00:14:02,0.18,0.57,0.00,17.51,24.80,26.62,5.95,31.88,998.06,2047.19,3272.52,3176.12,3429.06,349.21,323.48,5.30,0000 0000 0000 0000 000000
2014-04-13 00:15:02,0.16,0.57,0.00,17.51,24.79,26.61,6.10,31.92,998.06,2047.24,3272.20,3176.04,3429.01,349.93,323.99,5.30,0000 0000 0000 0000 000000
2014-04-13 00:16:02,0.09,0.57,0.00,17.50,24.78,26.62,5.97,31.92,998.06,2047.31,3272.07,3176.01,3428.76,349.07,323.20,5.31,0000 0000 0000 0000 000000
2014-04-13 00:17:03,0.14,0.57,0.00,17.49,24.77,26.63,6.31,31.79,998.06,2047.52,3271.92,3175.81,3428.33,350.45,324.49,5.32,0000 0000 0000 0000 000000
2014-04-13 00:18:03,0.26,0.58,0.00,17.48,24.77,26.65,6.07,31.96,998.06,2047.73,3271.48,3175.40,3428.12,350.30,324.37,5.32,0000 0000 0000 0000 000000
2014-04-13 00:19:03,0.39,0.58,0.00,17.43,24.77,26.57,5.89,31.83,998.06,2047.79,3271.18,3175.15,3428.04,350.63,324.73,5.33,0000 0000 0000 0000 000000
2014-04-13 00:20:04,0.11,0.58,0.00,17.40,24.77,26.50,6.09,31.75,998.06,2047.84,3270.97,3175.05,3427.98,350.11,324.28,5.33,0000 0000 0000 0000 000000
2014-04-13 00:21:04,0.10,0.58,0.00,17.38,24.76,26.44,6.27,31.75,998.06,2047.89,3270.53,3174.98,3427.62,351.21,325.33,5.34,0000 0000 0000 0000 000000
2014-04-13 00:22:04,0.14,0.58,0.00,17.37,24.75,26.41,6.16,31.58,998.04,2047.93,3270.20,3174.72,3427.26,350.13,324.59,5.35,0000 0000 0000 0000 000000
2014-04-13 00:23:05,0.21,0.58,0.00,17.39,24.75,26.39,6.15,31.88,997.92,2047.96,3270.07,3174.34,3427.10,350.31,324.44,5.35,0000 0000 0000 0000 000000
2014-04-13 00:24:05,0.12,0.58,0.00,17.40,24.75,26.42,6.21,31.92,997.69,2047.92,3269.92,3174.14,3427.01,351.04,324.64,5.36,0000 0000 0000 0000 000000
2014-04-13 00:25:05,0.01,0.58,0.00,17.40,24.75,26.41,5.92,32.00,997.59,2047.94,3269.43,3174.05,3426.86,349.02,323.03,5.36,0000 0000 0000 0000 000000
2014-04-13 00:26:05,0.16,0.58,0.00,17.41,24.73,26.38,6.12,32.04,997.59,2047.95,3269.15,3173.99,3426.44,350.44,324.19,5.37,0000 0000 0000 0000 000000
2014-04-13 00:27:05,0.11,0.58,0.00,17.42,24.72,26.45,6.02,32.17,997.57,2047.96,3268.94,3173.83,3426.18,349.78,323.43,5.38,0000 0000 0000 0000 000000
2014-04-13 00:28:06,0.11,0.58,0.00,17.42,24.72,26.47,5.90,31.96,997.55,2047.97,3268.56,3173.50,3426.07,349.84,323.58,5.38,0000 0000 0000 0000 000000
2014-04-13 00:29:06,0.16,0.59,0.00,17.42,24.72,26.48,6.21,32.25,997.54,2047.99,3268.21,3173.19,3426.00,350.06,324.06,5.39,0000 0000 0000 0000 000000
2014-04-13 00:30:06,0.12,0.59,0.00,17.39,24.72,26.48,6.05,32.42,997.55,2047.98,3268.07,3173.07,3425.69,349.69,323.45,5.39,0000 0000 0000 0000 000000
2014-04-13 00:31:06,0.08,0.59,0.00,17.38,24.71,26.38,6.07,32.21,997.57,2047.99,3267.83,3172.98,3425.26,349.74,323.80,5.40,0000 0000 0000 0000 000000
2014-04-13 00:32:07,0.10,0.59,0.00,17.37,24.70,26.36,5.95,32.33,997.56,2047.99,3267.34,3172.56,3425.09,349.73,323.81,5.40,0000 0000 0000 0000 000000
2014-04-13 00:33:07,0.21,0.59,0.00,17.35,24.70,26.32,6.03,32.33,997.57,2047.99,3267.11,3172.22,3424.94,349.60,323.40,5.41,0000 0000 0000 0000 000000
2014-04-13 00:34:07,0.11,0.59,0.00,17.34,24.70,26.27,6.07,32.00,997.57,2047.99,3266.89,3172.08,3424.60,350.11,324.32,5.42,0000 0000 0000 0000 000000
2014-04-13 00:35:07,0.11,0.59,0.00,17.34,24.70,26.29,5.88,32.42,997.57,2047.98,3266.58,3172.03,3424.28,349.76,323.90,5.42,0000 0000 0000 0000 000000
2014-04-13 00:36:07,0.09,0.59,0.00,17.36,24.69,26.35,6.05,32.38,997.59,2047.99,3266.27,3171.98,3424.11,350.28,324.12,5.43,0000 0000 0000 0000 000000
2014-04-13 00:37:07,0.07,0.59,0.00,17.37,24.69,26.39,5.96,32.33,997.62,2047.99,3266.10,3171.70,3424.03,349.81,323.90,5.43,0000 0000 0000 0000 000000
2014-04-13 00:38:08,0.10,0.59,0.00,17.37,24.67,26.39,6.12,32.21,997.80,2047.99,3265.92,3171.28,3423.98,350.21,324.32,5.44,0000 0000 0000 0000 000000
2014-04-13 00:39:08,0.11,0.59,0.00,17.37,24.67,26.38,6.09,32.04,997.97,2047.99,3265.50,3171.10,3423.70,349.57,323.79,5.45,0000 0000 0000 0000 000000
2014-04-13 00:40:08,0.15,0.59,0.00,17.36,24.67,26.40,6.10,32.04,998.05,2047.99,3265.18,3171.03,3423.27,350.45,324.68,5.45,0000 0000 0000 0000 000000
2014-04-13 00:41:08,0.10,0.59,0.00,17.34,24.67,26.43,5.88,31.83,998.06,2048.01,3265.06,3170.99,3423.09,348.99,323.31,5.46,0000 0000 0000 0000 000000
2014-04-13 00:42:09,0.04,0.59,0.00,17.34,24.66,26.41,6.13,31.79,998.06,2048.01,3265.01,3170.80,3423.00,350.35,324.66,5.46,0000 0000 0000 0000 000000
2014-04-13 00:43:09,0.07,0.59,0.00,17.35,24.65,26.37,5.90,31.92,998.06,2048.01,3264.70,3170.38,3422.88,349.21,323.51,5.47,0000 0000 0000 0000 000000
2014-04-13 00:44:09,0.17,0.60,0.00,17.36,24.65,26.42,6.03,31.92,998.07,2048.03,3264.30,3170.14,3422.48,349.35,323.63,5.47,0000 0000 0000 0000 000000
2014-04-13 00:45:10,0.16,0.60,0.00,17.35,24.65,26.38,6.27,31.88,998.08,2048.02,3264.11,3170.05,3422.19,350.87,325.05,5.48,0000 0000 0000 0000 000000
2014-04-13 00:46:10,0.07,0.60,0.00,17.32,24.65,26.35,6.22,32.08,998.07,2048.02,3264.03,3170.01,3422.07,350.00,324.08,5.49,0000 0000 0000 0000 000000
2014-04-13 00:47:10,0.02,0.60,0.00,17.28,24.64,26.30,6.03,31.96,998.06,2048.02,3263.73,3169.95,3422.01,349.46,324.04,5.49,0000 0000 0000 0000 000000
2014-04-13 00:48:10,0.07,0.60,0.00,17.27,24.63,26.31,5.90,32.21,998.06,2048.02,3263.28,3169.67,3421.87,349.23,323.33,5.50,0000 0000 0000 0000 000000
2014-04-13 00:49:11,0.14,0.60,0.00,17.28,24.62,26.36,6.32,32.25,998.07,2048.02,3263.09,3169.26,3421.39,350.19,324.51,5.50,0000 0000 0000 0000 000000
2014-04-13 00:50:11,0.18,0.60,0.00,17.27,24.62,26.33,6.05,32.13,998.07,2048.03,3262.98,3169.09,3421.14,349.82,324.16,5.51,0000 0000 0000 0000 000000
2014-04-13 00:51:11,0.08,0.60,0.00,17.28,24.62,26.34,6.07,32.29,998.08,2048.02,3262.64,3169.03,3421.05,349.42,323.79,5.52,0000 0000 0000 0000 000000
2014-04-13 00:52:11,0.06,0.60,0.00,17.27,24.62,26.32,6.13,32.33,998.15,2048.03,3262.40,3169.01,3421.00,349.85,324.21,5.52,0000 0000 0000 0000 000000
2014-04-13 00:53:12,0.05,0.60,0.00,17.27,24.61,26.33,6.08,32.00,998.47,2048.07,3262.14,3168.84,3420.80,350.60,325.08,5.53,0000 0000 0000 0000 000000
2014-04-13 00:54:12,0.13,0.60,0.00,17.27,24.60,26.37,6.26,32.00,998.55,2048.06,3262.04,3168.48,3420.42,350.16,324.82,5.53,0000 0000 0000 0000 000000
2014-04-13 00:55:12,0.14,0.60,0.00,17.27,24.60,26.36,5.92,31.96,998.55,2048.06,3261.77,3168.19,3420.15,350.15,324.64,5.54,0000 0000 0000 0000 000000
2014-04-13 00:56:12,0.14,0.60,0.00,17.26,24.60,26.36,6.08,32.08,998.58,2048.12,3261.32,3168.07,3420.05,350.21,324.70,5.54,0000 0000 0000 0000 000000
2014-04-13 00:57:12,0.16,0.60,0.00,17.26,24.60,26.31,6.12,32.08,998.71,2048.11,3261.11,3168.02,3420.00,350.63,325.13,5.55,0000 0000 0000 0000 000000
2014-04-13 00:58:13,0.01,0.60,0.00,17.26,24.58,26.38,6.25,32.04,998.93,2048.10,3260.99,3168.00,3419.90,350.78,325.34,5.56,0000 0000 0000 0000 000000
2014-04-13 00:59:13,0.07,0.60,0.00,17.25,24.57,26.38,6.07,31.92,999.01,2048.25,3260.82,3167.88,3419.61,350.74,325.34,5.56,0000 0000 0000 0000 000000
2014-04-13 01:00:13,0.19,0.61,0.00,17.25,24.57,26.38,6.04,31.96,999.04,2048.42,3260.41,3167.51,3419.25,349.55,324.63,5.57,0000 0000 0000 0000 000000
2014-04-13 01:01:13,0.36,0.61,0.00,17.24,24.57,26.36,6.17,31.88,999.04,2048.50,3260.16,3167.22,3419.08,350.68,324.85,5.57,0000 0000 0000 0000 000000
2014-04-13 01:02:14,0.13,0.61,0.00,17.24,24.57,26.38,6.04,31.67,999.04,2048.55,3260.04,3167.08,3419.02,349.89,324.57,5.58,0000 0000 0000 0000 000000
2014-04-13 01:03:14,0.08,0.61,0.00,17.24,24.56,26.42,6.01,31.88,999.04,2048.51,3259.73,3167.00,3418.89,349.36,324.04,5.59,0000 0000 0000 0000 000000
2014-04-13 01:04:14,0.04,0.61,0.00,17.24,24.55,26.36,6.10,31.79,999.04,2048.53,3259.30,3166.85,3418.50,350.56,325.23,5.59,0000 0000 0000 0000 000000
2014-04-13 01:05:14,0.18,0.61,0.00,17.22,24.55,26.28,6.27,31.79,999.04,2048.53,3259.11,3166.42,3418.20,350.54,325.26,5.60,0000 0000 0000 0000 000000
2014-04-13 01:06:15,0.19,0.61,0.00,17.20,24.55,26.20,6.32,31.92,999.04,2048.57,3258.99,3166.19,3418.07,351.43,325.59,5.60,0000 0000 0000 0000 000000
2014-04-13 01:07:15,0.09,0.61,0.00,17.22,24.54,26.20,6.08,31.92,999.04,2048.71,3258.62,3166.07,3418.03,350.10,324.80,5.61,0000 0000 0000 0000 000000
2014-04-13 01:08:15,0.18,0.61,0.00,17.22,24.54,26.21,6.01,31.92,999.04,2048.76,3258.23,3166.03,3417.99,350.00,324.81,5.61,0000 0000 0000 0000 000000
2014-04-13 01:09:15,0.10,0.61,0.00,17.22,24.53,26.25,5.97,31.79,999.04,2048.85,3258.08,3166.00,3417.71,349.52,324.25,5.62,0000 0000 0000 0000 000000
2014-04-13 01:10:15,0.12,0.61,0.00,17.22,24.52,26.23,6.13,32.00,999.05,2048.91,3257.94,3165.90,3417.30,350.12,324.61,5.63,0000 0000 0000 0000 000000
2014-04-13 01:11:16,0.15,0.62,0.00,17.23,24.52,26.22,6.08,31.88,999.08,2048.96,3257.53,3165.57,3417.11,350.11,324.79,5.63,0000 0000 0000 0000 000000
2014-04-13 01:12:16,0.20,0.62,0.00,17.24,24.52,26.18,6.02,31.75,999.11,2048.98,3257.21,3165.24,3417.04,350.19,325.23,5.64,0000 0000 0000 0000 000000
2014-04-13 01:13:16,0.13,0.62,0.00,17.25,24.52,26.20,6.21,32.00,999.19,2048.99,3257.07,3165.08,3417.01,351.59,326.19,5.64,0000 0000 0000 0000 000000
2014-04-13 01:14:16,0.06,0.62,0.00,17.27,24.51,26.19,6.05,31.79,999.27,2048.97,3256.94,3165.02,3416.74,350.01,324.99,5.65,0000 0000 0000 0000 000000
2014-04-13 01:15:16,0.06,0.62,0.00,17.27,24.50,26.18,6.27,31.88,999.31,2048.99,3256.47,3164.91,3416.32,350.13,324.93,5.66,0000 0000 0000 0000 000000
2014-04-13 01:16:17,0.16,0.62,0.00,17.27,24.50,26.19,5.97,31.79,999.19,2048.97,3256.17,3164.57,3416.12,349.65,324.37,5.66,0000 0000 0000 0000 000000
2014-04-13 01:17:17,0.12,0.62,0.00,17.27,24.50,26.18,5.98,31.79,999.12,2048.99,3256.05,3164.28,3416.04,350.46,324.89,5.67,0000 0000 0000 0000 000000
2014-04-13 01:18:17,0.09,0.62,0.00,17.27,24.50,26.22,6.02,31.71,999.08,2048.98,3255.95,3164.13,3416.01,350.28,324.48,5.67,0000 0000 0000 0000 000000
2014-04-13 01:19:17,0.04,0.62,0.00,17.25,24.50,26.22,6.19,31.79,999.12,2048.99,3255.53,3164.04,3415.88,350.07,324.72,5.68,0000 0000 0000 0000 000000
2014-04-13 01:20:17,0.10,0.62,0.00,17.24,24.48,26.23,6.09,31.71,999.16,2048.99,3255.19,3164.00,3415.43,349.41,324.49,5.69,0000 0000 0000 0000 000000
2014-04-13 01:21:17,0.11,0.62,0.00,17.24,24.47,26.22,6.02,31.71,999.26,2048.99,3255.06,3163.95,3415.16,349.61,324.39,5.69,0000 0000 0000 0000 000000
2014-04-13 01:22:18,0.06,0.62,0.00,17.23,24.47,26.22,5.97,31.75,999.20,2048.99,3254.90,3163.66,3415.05,349.83,324.58,5.70,0000 0000 0000 0000 000000
2014-04-13 01:23:18,0.10,0.62,0.00,17.22,24.47,26.22,5.99,31.75,999.12,2048.99,3254.42,3163.29,3415.00,349.47,324.40,5.70,0000 0000 0000 0000 000000
2014-04-13 01:24:18,0.16,0.62,0.00,17.22,24.47,26.22,5.93,31.88,999.16,2048.99,3254.15,3163.10,3414.73,349.93,324.68,5.71,0000 0000 0000 0000 000000
2014-04-13 01:25:19,0.11,0.62,0.00,17.23,24.47,26.16,6.01,31.79,999.22,2048.99,3253.97,3163.03,3414.29,350.32,325.05,5.71,0000 0000 0000 0000 000000
2014-04-13 01:26:19,0.10,0.63,0.00,17.19,24.45,26.14,5.98,31.71,999.14,2048.99,3253.47,3162.86,3414.11,350.00,324.77,5.72,0000 0000 0000 0000 000000
2014-04-13 01:27:19,0.14,0.63,0.00,17.15,24.45,26.10,6.03,31.67,999.11,2048.99,3253.17,3162.48,3414.02,349.42,324.26,5.73,0000 0000 0000 0000 000000
2014-04-13 01:28:19,0.13,0.63,0.00,17.14,24.45,26.07,6.27,31.71,999.08,2048.99,3253.06,3162.18,3413.86,350.12,324.74,5.73,0000 0000 0000 0000 000000
2014-04-13 01:29:20,0.10,0.63,0.00,17.16,24.45,26.08,6.33,31.79,999.04,2048.99,3252.94,3162.07,3413.57,351.14,325.84,5.74,0000 0000 0000 0000 000000
2014-04-13 01:30:20,0.08,0.63,0.00,17.14,24.45,26.09,6.13,31.88,999.04,2048.99,3252.53,3162.01,3413.24,349.55,324.40,5.74,0000 0000 0000 0000 000000
2014-04-13 01:31:20,0.11,0.63,0.00,17.16,24.44,26.10,6.06,31.83,999.05,2048.99,3252.19,3161.95,3413.08,350.49,325.41,5.75,0000 0000 0000 0000 000000
2014-04-13 01:32:21,0.07,0.63,0.00,17.19,24.43,26.09,6.07,31.92,999.06,2048.99,3252.05,3161.61,3413.01,349.90,324.66,5.76,0000 0000 0000 0000 000000
2014-04-13 01:33:21,0.10,0.63,0.00,17.21,24.42,26.09,6.17,31.83,999.05,2048.99,3251.65,3161.23,3412.76,350.09,324.81,5.76,0000 0000 0000 0000 000000
2014-04-13 01:34:21,0.17,0.63,0.00,17.20,24.42,26.08,5.98,31.92,999.04,2048.99,3251.26,3161.08,3412.31,349.88,324.68,5.77,0000 0000 0000 0000 000000
2014-04-13 01:35:21,0.14,0.63,0.00,17.22,24.42,26.05,6.20,32.00,999.04,2048.99,3251.09,3161.02,3412.13,350.26,325.11,5.77,0000 0000 0000 0000 000000
2014-04-13 01:36:22,0.05,0.63,0.00,17.23,24.42,26.04,5.97,31.96,999.04,2048.99,3250.97,3160.99,3412.05,349.86,324.53,5.78,0000 0000 0000 0000 000000
2014-04-13 01:37:22,0.04,0.63,0.00,17.24,24.42,26.10,5.79,31.83,999.04,2049.01,3250.57,3160.81,3411.98,349.07,323.69,5.78,0000 0000 0000 0000 000000
2014-04-13 01:38:22,0.11,0.63,0.00,17.24,24.41,26.10,5.88,31.96,999.04,2049.01,3250.22,3160.37,3411.71,350.08,325.04,5.79,0000 0000 0000 0000 000000
2014-04-13 01:39:22,0.17,0.63,0.00,17.24,24.40,26.16,6.12,31.79,999.04,2049.01,3250.08,3160.15,3411.34,350.10,324.77,5.80,0000 0000 0000 0000 000000
2014-04-13 01:40:23,0.12,0.63,0.00,17.26,24.40,26.14,6.32,31.96,999.04,2049.02,3249.87,3160.06,3411.13,350.23,324.87,5.80,0000 0000 0000 0000 000000
2014-04-13 01:41:23,0.07,0.64,0.00,17.26,24.40,26.19,6.05,31.88,999.04,2049.02,3249.38,3160.00,3411.04,349.90,324.57,5.81,0000 0000 0000 0000 000000
2014-04-13 01:42:23,0.08,0.64,0.00,17.26,24.40,26.17,6.19,32.08,999.04,2049.03,3249.15,3159.97,3410.99,350.46,325.09,5.81,0000 0000 0000 0000 000000
2014-04-13 01:43:24,0.08,0.64,0.00,17.25,24.40,26.21,5.99,32.00,999.04,2049.02,3249.02,3159.56,3410.63,349.34,324.05,5.82,0000 0000 0000 0000 000000
2014-04-13 01:44:24,0.15,0.64,0.00,17.24,24.39,26.22,5.96,31.96,999.04,2049.01,3248.70,3159.24,3410.26,349.62,324.33,5.83,0000 0000 0000 0000 000000
2014-04-13 01:45:24,0.14,0.64,0.00,17.23,24.38,26.17,6.03,32.13,999.04,2049.02,3248.30,3159.08,3410.10,349.83,324.54,5.83,0000 0000 0000 0000 000000
2014-04-13 01:46:25,0.11,0.64,0.00,17.20,24.37,26.13,6.08,32.29,999.04,2049.03,3248.11,3159.01,3410.02,349.93,324.66,5.84,0000 0000 0000 0000 000000
2014-04-13 01:47:25,0.06,0.64,0.00,17.16,24.37,26.11,6.15,32.13,999.04,2049.06,3248.01,3158.95,3409.97,350.14,324.85,5.84,0000 0000 0000 0000 000000
2014-04-13 01:48:25,0.07,0.64,0.00,17.14,24.37,26.07,6.18,32.08,999.04,2049.08,3247.82,3158.66,3409.61,349.55,324.37,5.85,0000 0000 0000 0000 000000
2014-04-13 01:49:25,0.15,0.64,0.00,17.15,24.37,26.04,6.08,32.29,999.05,2049.05,3247.36,3158.30,3409.26,350.27,325.29,5.86,0000 0000 0000 0000 000000
2014-04-13 01:50:26,0.16,0.64,0.00,17.17,24.37,26.08,6.29,32.21,999.07,2049.08,3247.13,3158.12,3409.10,350.50,325.39,5.86,0000 0000 0000 0000 000000
2014-04-13 01:51:26,0.12,0.64,0.00,17.17,24.36,26.11,6.08,32.04,999.07,2049.12,3246.93,3158.03,3409.03,350.21,325.03,5.87,0000 0000 0000 0000 000000
2014-04-13 01:52:26,0.07,0.64,0.00,17.19,24.36,26.15,6.02,32.04,999.16,2049.13,3246.55,3157.97,3408.79,349.87,325.01,5.87,0000 0000 0000 0000 000000
2014-04-13 01:53:27,0.11,0.64,0.00,17.20,24.35,26.09,6.16,32.17,999.34,2049.12,3246.22,3157.70,3408.37,350.38,325.40,5.88,0000 0000 0000 0000 000000
2014-04-13 01:54:27,0.16,0.64,0.00,17.22,24.35,26.10,6.12,32.17,999.39,2049.12,3246.08,3157.32,3408.14,350.57,325.57,5.88,0000 0000 0000 0000 000000
2014-04-13 01:55:27,0.12,0.64,0.00,17.21,24.35,26.14,6.23,32.08,999.45,2049.10,3246.03,3157.12,3408.05,350.28,325.29,5.89,0000 0000 0000 0000 000000
2014-04-13 01:56:27,0.04,0.65,0.00,17.19,24.35,26.16,6.22,32.08,999.50,2049.10,3245.93,3157.04,3408.00,350.05,324.62,5.90,0000 0000 0000 0000 000000
2014-04-13 01:57:27,0.04,0.65,0.00,17.20,24.35,26.15,6.01,32.00,999.53,2049.12,3245.47,3157.01,3407.80,349.88,324.77,5.90,0000 0000 0000 0000 000000
2014-04-13 01:58:28,0.11,0.65,0.00,17.21,24.34,26.18,6.25,32.17,999.53,2049.16,3245.17,3156.98,3407.41,350.71,325.54,5.91,0000 0000 0000 0000 000000
2014-04-13 01:59:28,0.14,0.65,0.00,17.22,24.34,26.17,6.13,32.00,999.53,2049.22,3245.05,3156.65,3407.16,350.09,324.94,5.91,0000 0000 0000 0000 000000
2014-04-13 02:00:28,0.14,0.65,0.00,17.21,24.33,26.15,6.14,31.88,999.51,2049.24,3244.82,3156.25,3407.05,349.75,324.64,5.92,0000 0000 0000 0000 000000
2014-04-13 02:01:29,0.16,0.65,0.00,17.19,24.32,26.14,6.19,32.00,999.52,2049.28,3244.33,3156.09,3406.97,350.80,325.63,5.93,0000 0000 0000 0000 000000
2014-04-13 02:02:29,0.15,0.65,0.00,17.17,24.32,26.08,6.05,31.92,999.53,2049.38,3244.12,3156.02,3406.65,350.51,325.40,5.93,0000 0000 0000 0000 000000
2014-04-13 02:03:29,0.16,0.65,0.00,17.15,24.32,26.02,5.97,31.96,999.52,2049.48,3243.99,3155.99,3406.30,349.44,324.42,5.94,0000 0000 0000 0000 000000
2014-04-13 02:04:30,0.17,0.65,0.00,17.17,24.32,26.04,5.91,31.92,999.51,2049.57,3243.61,3155.85,3406.11,349.21,324.18,5.94,0000 0000 0000 0000 000000
2014-04-13 02:05:30,0.16,0.65,0.00,17.17,24.32,26.03,6.08,32.00,999.48,2049.63,3243.24,3155.43,3406.04,350.12,324.62,5.95,0000 0000 0000 0000 000000
2014-04-13 02:06:30,0.19,0.65,0.00,17.17,24.32,26.05,6.13,32.00,999.52,2049.67,3243.08,3155.18,3405.99,350.14,324.99,5.95,0000 0000 0000 0000 000000
2014-04-13 02:07:31,0.11,0.65,0.00,17.19,24.31,26.07,5.92,31.75,999.50,2049.75,3243.01,3155.07,3405.78,348.77,323.75,5.96,0000 0000 0000 0000 000000
2014-04-13 02:08:31,0.11,0.66,0.00,17.18,24.30,26.07,6.14,32.04,999.51,2049.76,3242.80,3155.01,3405.39,350.06,324.96,5.97,0000 0000 0000 0000 000000
2014-04-13 02:09:31,0.09,0.66,0.00,17.19,24.30,26.03,6.08,31.96,999.52,2049.78,3242.35,3154.99,3405.14,349.54,324.66,5.97,0000 0000 0000 0000 000000
2014-04-13 02:10:31,0.13,0.66,0.00,17.19,24.30,26.06,6.07,31.88,999.53,2049.80,3242.14,3154.85,3405.05,350.23,325.10,5.98,0000 0000 0000 0000 000000
2014-04-13 02:11:32,0.08,0.66,0.00,17.19,24.30,26.15,6.02,31.88,999.53,2049.84,3242.05,3154.45,3405.01,349.54,324.58,5.98,0000 0000 0000 0000 000000
2014-04-13 02:12:32,0.11,0.66,0.00,17.20,24.30,26.13,6.16,31.79,999.53,2049.88,3241.94,3154.18,3404.92,350.14,324.79,5.99,0000 0000 0000 0000 000000
2014-04-13 02:13:32,0.12,0.66,0.00,17.20,24.30,26.07,6.08,31.71,999.53,2049.88,3241.50,3154.06,3404.53,349.54,324.46,6.00,0000 0000 0000 0000 000000
2014-04-13 02:14:33,0.13,0.66,0.00,17.20,24.29,26.06,6.13,31.92,999.53,2049.89,3241.19,3154.01,3404.22,350.07,324.95,6.00,0000 0000 0000 0000 000000
2014-04-13 02:15:33,0.10,0.66,0.00,17.19,24.29,26.07,6.11,31.71,999.53,2049.92,3241.07,3153.98,3404.08,350.36,325.22,6.01,0000 0000 0000 0000 000000
2014-04-13 02:16:33,0.07,0.66,0.00,17.21,24.28,26.07,6.05,31.71,999.53,2049.95,3240.95,3153.81,3404.03,350.22,325.08,6.01,0000 0000 0000 0000 000000
2014-04-13 02:17:33,0.11,0.66,0.00,17.19,24.27,26.09,6.11,31.83,999.53,2049.93,3240.54,3153.39,3403.97,350.16,325.04,6.02,0000 0000 0000 0000 000000
2014-04-13 02:18:34,0.14,0.66,0.00,17.18,24.27,26.16,6.03,31.83,999.53,2049.96,3240.21,3153.15,3403.74,349.62,324.56,6.02,0000 0000 0000 0000 000000
2014-04-13 02:19:34,0.13,0.66,0.00,17.17,24.27,26.13,6.09,31.54,999.53,2049.97,3240.07,3153.05,3403.37,350.68,325.54,6.03,0000 0000 0000 0000 000000
2014-04-13 02:20:34,0.10,0.66,0.00,17.14,24.27,26.08,6.07,31.67,999.53,2049.98,3239.97,3153.02,3403.15,348.81,323.84,6.04,0000 0000 0000 0000 000000
2014-04-13 02:21:34,0.06,0.66,0.00,17.08,24.27,26.07,5.96,31.67,999.53,2049.99,3239.63,3153.00,3403.05,349.45,324.70,6.04,0000 0000 0000 0000 000000
2014-04-13 02:22:35,0.06,0.66,0.00,17.06,24.27,26.00,6.09,31.58,999.53,2049.98,3239.27,3152.94,3403.02,349.84,324.89,6.05,0000 0000 0000 0000 000000
2014-04-13 02:23:35,0.07,0.66,0.00,17.08,24.27,26.01,6.11,31.83,999.53,2049.98,3239.10,3152.67,3402.97,350.25,325.26,6.05,0000 0000 0000 0000 000000
2014-04-13 02:24:35,0.11,0.66,0.00,17.11,24.25,26.03,6.18,31.92,999.53,2049.98,3238.94,3152.30,3402.60,350.93,325.67,6.06,0000 0000 0000 0000 000000
2014-04-13 02:25:36,0.16,0.67,0.00,17.11,24.25,26.08,6.09,31.71,999.51,2049.98,3238.43,3152.11,3402.25,349.65,324.74,6.07,0000 0000 0000 0000 000000
2014-04-13 02:26:36,0.14,0.67,0.00,17.13,24.25,26.12,6.07,31.92,999.39,2049.99,3238.16,3152.04,3402.09,349.40,324.89,6.07,0000 0000 0000 0000 000000
2014-04-13 02:27:36,0.07,0.67,0.00,17.14,24.25,26.11,5.96,31.83,999.34,2049.99,3238.05,3151.99,3402.02,349.52,324.44,6.08,0000 0000 0000 0000 000000
2014-04-13 02:28:36,0.03,0.67,0.00,17.16,24.25,26.09,6.04,31.88,999.27,2049.99,3237.97,3151.83,3401.90,350.20,325.13,6.08,0000 0000 0000 0000 000000
2014-04-13 02:29:37,0.09,0.67,0.00,17.17,24.25,26.08,6.02,31.92,999.21,2049.98,3237.63,3151.38,3401.53,349.38,324.54,6.09,0000 0000 0000 0000 000000
2014-04-13 02:30:37,0.17,0.67,0.00,17.18,24.25,26.08,6.10,31.88,999.28,2049.99,3237.26,3151.15,3401.21,350.73,325.51,6.10,0000 0000 0000 0000 000000
2014-04-13 02:31:37,0.13,0.67,0.00,17.19,24.24,26.10,5.97,31.88,999.32,2049.99,3237.09,3151.05,3401.07,349.31,324.69,6.10,0000 0000 0000 0000 000000
2014-04-13 02:32:37,0.05,0.67,0.00,17.19,24.24,26.15,6.04,32.00,999.42,2049.99,3237.01,3151.02,3401.02,350.21,325.06,6.11,0000 0000 0000 0000 000000
2014-04-13 02:33:38,0.03,0.67,0.00,17.19,24.23,26.23,5.98,31.71,999.36,2049.99,3236.65,3150.94,3400.95,349.47,324.35,6.11,0000 0000 0000 0000 000000
2014-04-13 02:34:38,0.09,0.67,0.00,17.19,24.22,26.19,6.15,31.71,999.35,2049.99,3236.25,3150.65,3400.57,350.18,325.00,6.12,0000 0000 0000 0000 000000
2014-04-13 02:35:38,0.16,0.67,0.00,17.19,24.22,26.22,6.13,31.71,999.47,2049.99,3236.09,3150.29,3400.24,350.02,324.70,6.12,0000 0000 0000 0000 000000
2014-04-13 02:36:39,0.13,0.67,0.00,17.16,24.22,26.16,6.03,31.67,999.51,2049.99,3236.03,3150.12,3400.08,349.28,324.24,6.13,0000 0000 0000 0000 000000
2014-04-13 02:37:39,0.06,0.67,0.00,17.12,24.22,26.08,6.12,31.71,999.52,2049.99,3235.78,3150.04,3400.03,349.98,324.95,6.14,0000 0000 0000 0000 000000
2014-04-13 02:38:39,0.06,0.67,0.00,17.09,24.22,26.01,6.13,31.79,999.51,2049.99,3235.37,3150.01,3400.01,350.06,325.05,6.14,0000 0000 0000 0000 000000